Time,TemperatureF,DewpointF,PressureIn,WindDirection,WindDirectionDegrees,WindSpeedMPH,WindSpeedGustMPH,Humidity,HourlyPrecipIn,Conditions,Clouds,dailyrainin,SoftwareType,DateUTC
2013-02-13 00:01:00,35.0,9.0,-100.00,SW,218,1.0,3.0,33,-99.99,,,-99.99,,2013-02-13 08:01:00,
2013-02-13 00:11:00,33.0,10.0,-100.00,SE,135,1.0,3.0,38,-99.99,,,-99.99,,2013-02-13 08:11:00,
2013-02-13 00:21:00,31.0,11.0,-100.00,South,175,2.0,3.0,42,-99.99,,,-99.99,,2013-02-13 08:21:00,
2013-02-13 00:31:00,31.0,12.0,-100.00,NNE,28,1.0,3.0,44,-99.99,,,-99.99,,2013-02-13 08:31:00,
2013-02-13 00:42:00,30.0,11.0,-100.00,NE,46,1.0,5.0,45,-99.99,,,-99.99,,2013-02-13 08:42:00,
2013-02-13 00:52:00,29.0,12.0,-100.00,East,99,1.0,4.0,48,-99.99,,,-99.99,,2013-02-13 08:52:00,
2013-02-13 01:01:00,28.0,12.0,-100.00,NE,48,0.0,3.0,51,-99.99,,,-99.99,,2013-02-13 09:01:00,
2013-02-13 01:11:00,29.0,11.0,-100.00,ENE,78,1.0,4.0,46,-99.99,,,-99.99,,2013-02-13 09:11:00,
2013-02-13 01:21:00,34.0,10.0,-100.00,North,352,2.0,8.0,36,-99.99,,,-99.99,,2013-02-13 09:21:00,
2013-02-13 01:31:00,35.0,9.0,-100.00,North,3,4.0,8.0,33,-99.99,,,-99.99,,2013-02-13 09:31:00,
2013-02-13 01:41:00,35.0,9.0,-100.00,SE,134,3.0,7.0,34,-99.99,,,-99.99,,2013-02-13 09:41:00,
2013-02-13 01:51:00,31.0,11.0,-100.00,SSE,159,3.0,6.0,43,-99.99,,,-99.99,,2013-02-13 09:51:00,
2013-02-13 02:01:00,31.0,11.0,-100.00,SSE,159,3.0,6.0,43,-99.99,,,-99.99,,2013-02-13 10:01:00,
2013-02-13 02:11:00,29.0,11.0,-100.00,East,87,0.0,3.0,46,-99.99,,,-99.99,,2013-02-13 10:11:00,
2013-02-13 02:21:00,30.0,12.0,-100.00,ESE,118,1.0,4.0,46,-99.99,,,-99.99,,2013-02-13 10:21:00,
2013-02-13 02:31:00,31.0,11.0,-100.00,ESE,117,2.0,5.0,42,-99.99,,,-99.99,,2013-02-13 10:31:00,
2013-02-13 02:41:00,36.0,8.0,-100.00,NE,39,5.0,8.0,30,-99.99,,,-99.99,,2013-02-13 10:41:00,
2013-02-13 02:51:00,38.0,7.0,-100.00,NE,46,8.0,14.0,27,-99.99,,,-99.99,,2013-02-13 10:51:00,
2013-02-13 03:01:00,38.0,6.0,-100.00,NNE,29,8.0,17.0,26,-99.99,,,-99.99,,2013-02-13 11:01:00,
2013-02-13 03:11:00,38.0,6.0,-100.00,North,2,6.0,10.0,26,-99.99,,,-99.99,,2013-02-13 11:11:00,
2013-02-13 03:22:00,39.0,7.0,-100.00,North,2,7.0,13.0,26,-99.99,,,-99.99,,2013-02-13 11:22:00,
2013-02-13 03:31:00,38.0,6.0,-100.00,NNE,32,9.0,16.0,26,-99.99,,,-99.99,,2013-02-13 11:31:00,
2013-02-13 03:42:00,39.0,6.0,-100.00,NE,54,13.0,25.0,25,-99.99,,,-99.99,,2013-02-13 11:42:00,
2013-02-13 03:52:00,39.0,5.0,-100.00,NE,50,13.0,20.0,24,-99.99,,,-99.99,,2013-02-13 11:52:00,
2013-02-13 04:02:00,39.0,5.0,-100.00,NE,50,13.0,20.0,24,-99.99,,,-99.99,,2013-02-13 12:02:00,
2013-02-13 04:11:00,39.0,5.0,-100.00,NE,49,12.0,19.0,24,-99.99,,,-99.99,,2013-02-13 12:11:00,
2013-02-13 04:21:00,39.0,6.0,-100.00,NE,47,11.0,18.0,25,-99.99,,,-99.99,,2013-02-13 12:21:00,
2013-02-13 04:31:00,39.0,6.0,-100.00,NE,46,11.0,19.0,25,-99.99,,,-99.99,,2013-02-13 12:31:00,
2013-02-13 04:42:00,40.0,7.0,-100.00,NE,49,11.0,18.0,25,-99.99,,,-99.99,,2013-02-13 12:42:00,
2013-02-13 04:52:00,40.0,8.0,-100.00,NE,51,13.0,20.0,26,-99.99,,,-99.99,,2013-02-13 12:52:00,
2013-02-13 05:02:00,40.0,8.0,-100.00,NE,53,12.0,19.0,26,-99.99,,,-99.99,,2013-02-13 13:02:00,
2013-02-13 05:11:00,40.0,8.0,-100.00,NE,55,13.0,19.0,26,-99.99,,,-99.99,,2013-02-13 13:11:00,
2013-02-13 05:21:00,40.0,8.0,-100.00,NE,51,12.0,18.0,26,-99.99,,,-99.99,,2013-02-13 13:21:00,
2013-02-13 05:31:00,40.0,8.0,-100.00,NE,52,12.0,20.0,26,-99.99,,,-99.99,,2013-02-13 13:31:00,
2013-02-13 05:41:00,40.0,9.0,-100.00,NE,52,11.0,20.0,27,-99.99,,,-99.99,,2013-02-13 13:41:00,
2013-02-13 05:51:00,40.0,9.0,-100.00,NE,50,11.0,20.0,27,-99.99,,,-99.99,,2013-02-13 13:51:00,
2013-02-13 06:01:00,40.0,9.0,-100.00,NE,56,12.0,21.0,27,-99.99,,,-99.99,,2013-02-13 14:01:00,
2013-02-13 06:11:00,40.0,8.0,-100.00,NE,54,11.0,18.0,26,-99.99,,,-99.99,,2013-02-13 14:11:00,
2013-02-13 06:21:00,40.0,8.0,-100.00,NE,54,11.0,16.0,26,-99.99,,,-99.99,,2013-02-13 14:21:00,
2013-02-13 06:31:00,40.0,9.0,-100.00,NE,48,12.0,17.0,27,-99.99,,,-99.99,,2013-02-13 14:31:00,
2013-02-13 06:41:00,40.0,10.0,-100.00,NE,51,10.0,19.0,29,-99.99,,,-99.99,,2013-02-13 14:41:00,
2013-02-13 06:52:00,40.0,11.0,-100.00,NE,53,11.0,19.0,30,-99.99,,,-99.99,,2013-02-13 14:52:00,
2013-02-13 07:01:00,40.0,11.0,-100.00,NE,53,11.0,19.0,30,-99.99,,,-99.99,,2013-02-13 15:01:00,
2013-02-13 07:11:00,40.0,12.0,-100.00,NE,43,10.0,17.0,31,-99.99,,,-99.99,,2013-02-13 15:11:00,
2013-02-13 07:21:00,40.0,12.0,-100.00,NNE,12,5.0,12.0,31,-99.99,,,-99.99,,2013-02-13 15:21:00,
2013-02-13 07:31:00,40.0,13.0,-100.00,NNW,341,5.0,12.0,32,-99.99,,,-99.99,,2013-02-13 15:31:00,
2013-02-13 07:41:00,40.0,12.0,-100.00,NNE,20,7.0,18.0,31,-99.99,,,-99.99,,2013-02-13 15:41:00,
2013-02-13 07:51:00,40.0,11.0,-100.00,NE,36,10.0,17.0,30,-99.99,,,-99.99,,2013-02-13 15:51:00,
2013-02-13 08:01:00,41.0,11.0,-100.00,NE,40,11.0,21.0,29,-99.99,,,-99.99,,2013-02-13 16:01:00,
2013-02-13 08:11:00,42.0,11.0,-100.00,NE,43,13.0,21.0,28,-99.99,,,-99.99,,2013-02-13 16:11:00,
2013-02-13 08:21:00,42.0,11.0,-100.00,NE,42,12.0,21.0,28,-99.99,,,-99.99,,2013-02-13 16:21:00,
2013-02-13 08:31:00,43.0,12.0,-100.00,NE,42,13.0,23.0,28,-99.99,,,-99.99,,2013-02-13 16:31:00,
2013-02-13 08:41:00,43.0,12.0,-100.00,NE,42,10.0,24.0,28,-99.99,,,-99.99,,2013-02-13 16:41:00,
2013-02-13 08:51:00,43.0,12.0,-100.00,NE,40,12.0,24.0,28,-99.99,,,-99.99,,2013-02-13 16:51:00,
2013-02-13 09:01:00,44.0,13.0,-100.00,NE,36,13.0,23.0,28,-99.99,,,-99.99,,2013-02-13 17:01:00,
2013-02-13 09:11:00,44.0,13.0,-100.00,NE,41,13.0,23.0,28,-99.99,,,-99.99,,2013-02-13 17:11:00,
2013-02-13 09:21:00,44.0,13.0,-100.00,NE,38,15.0,23.0,28,-99.99,,,-99.99,,2013-02-13 17:21:00,
2013-02-13 09:31:00,44.0,13.0,-100.00,NE,40,13.0,18.0,28,-99.99,,,-99.99,,2013-02-13 17:31:00,
2013-02-13 09:41:00,45.0,13.0,-100.00,NE,39,14.0,22.0,27,-99.99,,,-99.99,,2013-02-13 17:41:00,
2013-02-13 09:52:00,45.0,14.0,-100.00,NE,38,15.0,24.0,28,-99.99,,,-99.99,,2013-02-13 17:52:00,
2013-02-13 10:01:00,45.0,14.0,-100.00,NE,38,15.0,24.0,28,-99.99,,,-99.99,,2013-02-13 18:01:00,
2013-02-13 10:11:00,46.0,13.0,-100.00,NE,36,11.0,21.0,26,-99.99,,,-99.99,,2013-02-13 18:11:00,
2013-02-13 10:22:00,46.0,13.0,-100.00,NE,43,10.0,21.0,26,-99.99,,,-99.99,,2013-02-13 18:22:00,
2013-02-13 10:32:00,46.0,12.0,-100.00,NE,46,10.0,18.0,25,-99.99,,,-99.99,,2013-02-13 18:32:00,
2013-02-13 10:41:00,47.0,12.0,-100.00,NE,44,7.0,15.0,24,-99.99,,,-99.99,,2013-02-13 18:41:00,
2013-02-13 10:51:00,48.0,13.0,-100.00,NNE,18,6.0,11.0,24,-99.99,,,-99.99,,2013-02-13 18:51:00,
2013-02-13 11:01:00,48.0,13.0,-100.00,NNE,18,6.0,11.0,24,-99.99,,,-99.99,,2013-02-13 19:01:00,
2013-02-13 11:11:00,50.0,14.0,-100.00,North,2,5.0,12.0,23,-99.99,,,-99.99,,2013-02-13 19:11:00,
2013-02-13 11:21:00,50.0,13.0,-100.00,North,6,6.0,12.0,22,-99.99,,,-99.99,,2013-02-13 19:21:00,
2013-02-13 11:31:00,51.0,14.0,-100.00,North,350,3.0,8.0,22,-99.99,,,-99.99,,2013-02-13 19:31:00,
2013-02-13 11:41:00,50.0,14.0,-100.00,North,6,6.0,16.0,23,-99.99,,,-99.99,,2013-02-13 19:41:00,
2013-02-13 11:51:00,50.0,14.0,-100.00,North,360,6.0,14.0,23,-99.99,,,-99.99,,2013-02-13 19:51:00,
2013-02-13 12:01:00,50.0,14.0,-100.00,North,360,6.0,14.0,23,-99.99,,,-99.99,,2013-02-13 20:01:00,
2013-02-13 12:11:00,50.0,14.0,-100.00,North,360,6.0,14.0,23,-99.99,,,-99.99,,2013-02-13 20:11:00,
2013-02-13 12:21:00,50.0,16.0,-100.00,North,1,6.0,11.0,25,-99.99,,,-99.99,,2013-02-13 20:21:00,
2013-02-13 12:31:00,50.0,16.0,-100.00,North,359,6.0,10.0,25,-99.99,,,-99.99,,2013-02-13 20:31:00,
2013-02-13 12:41:00,50.0,16.0,-100.00,North,8,7.0,12.0,25,-99.99,,,-99.99,,2013-02-13 20:41:00,
2013-02-13 12:52:00,49.0,14.0,-100.00,NNE,16,7.0,11.0,24,-99.99,,,-99.99,,2013-02-13 20:52:00,
2013-02-13 13:01:00,50.0,15.0,-100.00,North,7,4.0,8.0,24,-99.99,,,-99.99,,2013-02-13 21:01:00,
2013-02-13 13:11:00,50.0,14.0,-100.00,North,355,6.0,10.0,23,-99.99,,,-99.99,,2013-02-13 21:11:00,
2013-02-13 13:21:00,50.0,16.0,-100.00,NNW,344,6.0,9.0,25,-99.99,,,-99.99,,2013-02-13 21:21:00,
2013-02-13 13:31:00,50.0,16.0,-100.00,North,349,7.0,14.0,26,-99.99,,,-99.99,,2013-02-13 21:31:00,
2013-02-13 13:42:00,50.0,15.0,-100.00,North,354,6.0,12.0,24,-99.99,,,-99.99,,2013-02-13 21:42:00,
2013-02-13 13:52:00,51.0,16.0,-100.00,North,354,4.0,9.0,24,-99.99,,,-99.99,,2013-02-13 21:52:00,
2013-02-13 14:02:00,51.0,16.0,-100.00,North,354,4.0,9.0,24,-99.99,,,-99.99,,2013-02-13 22:02:00,
2013-02-13 14:11:00,51.0,15.0,-100.00,North,358,6.0,10.0,23,-99.99,,,-99.99,,2013-02-13 22:11:00,
2013-02-13 14:21:00,51.0,14.0,-100.00,NE,39,6.0,11.0,22,-99.99,,,-99.99,,2013-02-13 22:21:00,
2013-02-13 14:31:00,52.0,14.0,-100.00,NNE,27,5.0,8.0,22,-99.99,,,-99.99,,2013-02-13 22:31:00,
2013-02-13 14:42:00,52.0,15.0,-100.00,NNE,20,4.0,7.0,23,-99.99,,,-99.99,,2013-02-13 22:42:00,
2013-02-13 14:51:00,52.0,14.0,-100.00,NE,38,5.0,9.0,22,-99.99,,,-99.99,,2013-02-13 22:51:00,
2013-02-13 15:01:00,53.0,16.0,-100.00,ENE,69,3.0,9.0,23,-99.99,,,-99.99,,2013-02-13 23:01:00,
2013-02-13 15:11:00,53.0,16.0,-100.00,NNE,20,5.0,9.0,23,-99.99,,,-99.99,,2013-02-13 23:11:00,
2013-02-13 15:21:00,53.0,16.0,-100.00,NNE,28,6.0,8.0,23,-99.99,,,-99.99,,2013-02-13 23:21:00,
2013-02-13 15:31:00,53.0,19.0,-100.00,NNW,339,4.0,7.0,26,-99.99,,,-99.99,,2013-02-13 23:31:00,
2013-02-13 15:41:00,53.0,24.0,-100.00,West,275,3.0,7.0,32,-99.99,,,-99.99,,2013-02-13 23:41:00,
2013-02-13 15:52:00,54.0,24.0,-100.00,West,268,2.0,6.0,31,-99.99,,,-99.99,,2013-02-13 23:52:00,
2013-02-13 16:01:00,53.0,24.0,-100.00,WNW,287,3.0,7.0,32,-99.99,,,-99.99,,2013-02-14 00:01:00,
2013-02-13 16:11:00,53.0,25.0,-100.00,WNW,299,2.0,7.0,33,-99.99,,,-99.99,,2013-02-14 00:11:00,
2013-02-13 16:21:00,53.0,25.0,-100.00,WSW,243,2.0,6.0,33,-99.99,,,-99.99,,2013-02-14 00:21:00,
2013-02-13 16:31:00,52.0,25.0,-100.00,SW,219,3.0,6.0,34,-99.99,,,-99.99,,2013-02-14 00:31:00,
2013-02-13 16:41:00,52.0,25.0,-100.00,West,269,2.0,6.0,35,-99.99,,,-99.99,,2013-02-14 00:41:00,
2013-02-13 16:51:00,52.0,25.0,-100.00,West,281,1.0,5.0,35,-99.99,,,-99.99,,2013-02-14 00:51:00,
2013-02-13 17:01:00,51.0,26.0,-100.00,NW,309,2.0,5.0,37,-99.99,,,-99.99,,2013-02-14 01:01:00,
2013-02-13 17:11:00,50.0,26.0,-100.00,NW,304,3.0,5.0,39,-99.99,,,-99.99,,2013-02-14 01:11:00,
2013-02-13 17:21:00,50.0,26.0,-100.00,WNW,294,2.0,5.0,39,-99.99,,,-99.99,,2013-02-14 01:21:00,
2013-02-13 17:31:00,49.0,27.0,-100.00,West,272,2.0,5.0,42,-99.99,,,-99.99,,2013-02-14 01:31:00,
2013-02-13 17:41:00,49.0,27.0,-100.00,West,272,2.0,5.0,42,-99.99,,,-99.99,,2013-02-14 01:41:00,
2013-02-13 17:51:00,46.0,28.0,-100.00,NNW,339,1.0,3.0,49,-99.99,,,-99.99,,2013-02-14 01:51:00,
2013-02-13 18:01:00,44.0,28.0,-100.00,NNE,16,1.0,3.0,54,-99.99,,,-99.99,,2013-02-14 02:01:00,
2013-02-13 18:11:00,40.0,28.0,-100.00,ESE,119,2.0,3.0,63,-99.99,,,-99.99,,2013-02-14 02:11:00,
2013-02-13 18:31:00,36.0,28.0,-100.00,SSE,166,2.0,4.0,72,-99.99,,,-99.99,,2013-02-14 02:31:00,
2013-02-13 18:41:00,36.0,28.0,-100.00,SSE,166,2.0,4.0,72,-99.99,,,-99.99,,2013-02-14 02:41:00,
2013-02-13 18:51:00,36.0,28.0,-100.00,SSE,166,2.0,4.0,72,-99.99,,,-99.99,,2013-02-14 02:51:00,
2013-02-13 19:02:00,33.0,26.0,-100.00,SSW,193,1.0,3.0,76,-99.99,,,-99.99,,2013-02-14 03:02:00,
2013-02-13 19:11:00,33.0,26.0,-100.00,East,85,1.0,3.0,74,-99.99,,,-99.99,,2013-02-14 03:11:00,
2013-02-13 19:31:00,33.0,25.0,-100.00,East,93,1.0,2.0,71,-99.99,,,-99.99,,2013-02-14 03:31:00,
2013-02-13 19:42:00,32.0,24.0,-100.00,ESE,111,0.0,2.0,72,-99.99,,,-99.99,,2013-02-14 03:42:00,
2013-02-13 19:51:00,32.0,25.0,-100.00,ENE,67,0.0,2.0,75,-99.99,,,-99.99,,2013-02-14 03:51:00,
2013-02-13 20:01:00,31.0,24.0,-100.00,ENE,72,1.0,2.0,75,-99.99,,,-99.99,,2013-02-14 04:01:00,
2013-02-13 20:11:00,32.0,24.0,-100.00,East,82,2.0,3.0,71,-99.99,,,-99.99,,2013-02-14 04:11:00,
2013-02-13 20:31:00,30.0,23.0,-100.00,ENE,70,1.0,3.0,76,-99.99,,,-99.99,,2013-02-14 04:31:00,
2013-02-13 20:41:00,31.0,23.0,-100.00,ENE,70,3.0,4.0,72,-99.99,,,-99.99,,2013-02-14 04:41:00,
2013-02-13 20:51:00,31.0,23.0,-100.00,East,88,1.0,4.0,73,-99.99,,,-99.99,,2013-02-14 04:51:00,
2013-02-13 21:01:00,30.0,23.0,-100.00,ENE,74,3.0,4.0,75,-99.99,,,-99.99,,2013-02-14 05:01:00,
2013-02-13 21:11:00,30.0,22.0,-100.00,East,101,2.0,4.0,73,-99.99,,,-99.99,,2013-02-14 05:11:00,
2013-02-13 21:21:00,30.0,23.0,-100.00,ESE,108,1.0,2.0,76,-99.99,,,-99.99,,2013-02-14 05:21:00,
2013-02-13 21:31:00,30.0,23.0,-100.00,ENE,64,2.0,3.0,75,-99.99,,,-99.99,,2013-02-14 05:31:00,
2013-02-13 21:41:00,30.0,22.0,-100.00,East,98,2.0,3.0,73,-99.99,,,-99.99,,2013-02-14 05:41:00,
2013-02-13 21:51:00,29.0,22.0,-100.00,East,81,2.0,3.0,76,-99.99,,,-99.99,,2013-02-14 05:51:00,
2013-02-13 22:01:00,29.0,22.0,-100.00,NE,46,0.0,2.0,75,-99.99,,,-99.99,,2013-02-14 06:01:00,
2013-02-13 22:11:00,29.0,22.0,-100.00,SSE,162,1.0,3.0,76,-99.99,,,-99.99,,2013-02-14 06:11:00,
2013-02-13 22:31:00,41.0,20.0,-100.00,ENE,63,7.0,16.0,42,-99.99,,,-99.99,,2013-02-14 06:31:00,
2013-02-13 22:41:00,46.0,17.0,-100.00,ENE,63,9.0,16.0,31,-99.99,,,-99.99,,2013-02-14 06:41:00,
2013-02-13 22:51:00,47.0,17.0,-100.00,ENE,67,9.0,14.0,30,-99.99,,,-99.99,,2013-02-14 06:51:00,
2013-02-13 23:01:00,46.0,16.0,-100.00,ENE,72,8.0,12.0,30,-99.99,,,-99.99,,2013-02-14 07:01:00,
2013-02-13 23:11:00,46.0,16.0,-100.00,ENE,75,9.0,12.0,30,-99.99,,,-99.99,,2013-02-14 07:11:00,
2013-02-13 23:21:00,46.0,17.0,-100.00,ENE,75,9.0,14.0,31,-99.99,,,-99.99,,2013-02-14 07:21:00,
2013-02-13 23:31:00,46.0,17.0,-100.00,ENE,67,9.0,14.0,31,-99.99,,,-99.99,,2013-02-14 07:31:00,
2013-02-13 23:41:00,46.0,17.0,-100.00,ENE,66,8.0,13.0,31,-99.99,,,-99.99,,2013-02-14 07:41:00,
2013-02-13 23:51:00,46.0,17.0,-100.00,ENE,64,8.0,15.0,31,-99.99,,,-99.99,,2013-02-14 07:51:00,